Regional Weather Roundup
Issued by NWS Wilmington, NC

Home | Current Version | Previous Version | Text Only | Print | Product List | Glossary On
Versions: 1 2 3 4 5 6 7 8 9 10 11 12 13 14 15 16 17 18 19 20 21 22 23 24 25 26 27
000
ASUS42 KILM 300013
RWRILM
RWRILM
REGIONAL HOURLY WEATHER ROUNDUP
NATIONAL WEATHER SERVICE WILMINGTON NC
800 PM EDT FRI APR 29 2016

NOTE: "FAIR" INDICATES FEW OR NO CLOUDS BELOW 12,000 FEET WITH NO
SIGNIFICANT WEATHER AND/OR OBSTRUCTIONS TO VISIBILITY.

...............WFO WILMINGTON COUNTY WARNING AREA...............

......COASTAL NC AND SC COUNTIES......

CITY           SKY/WX    TMP DP  RH WIND       PRES   REMARKS
WILMINGTON     CLEAR     69  61  75 CALM      29.97R
N MYRTLE BEACH CLEAR     69  64  84 SE6       29.96R
MYRTLE BEACH   NOT AVBL

......INLAND NC AND SC COUNTIES.......

CITY           SKY/WX    TMP DP  RH WIND       PRES   REMARKS
LUMBERTON      CLEAR     76  63  64 SE3       29.93R
ELIZABETHTOWN  CLEAR     74  59  60 CALM      29.95R
WHITEVILLE     CLEAR     75  66  73 S6        29.95R
FLORENCE       CLOUDY    79  63  57 S6        29.93S
DARLINGTON     NOT AVBL
KINGSTREE      FAIR      77  64  65 SE9       29.93S
HARTSVILLE     FAIR      77  61  57 S3        29.93R
BENNETTSVILLE  FAIR      81  63  54 CALM      29.93R
CONWAY         FAIR      70  64  83 SE3       29.97R
GEORGETOWN     FAIR      70  64  83 SE7       29.97S
MARION         FAIR      75  64  69 SE7       29.94R

....................REST OF NORTH CAROLINA......................

.........EASTERN NC.........

CITY           SKY/WX    TMP DP  RH WIND       PRES   REMARKS
CAPE HATTERAS  CLOUDY    62  58  86 NE9G18    29.99R
JACKSONVILLE   CLEAR     66  59  78 NE5       29.98R
MOREHEAD CITY  CLEAR     64  58  80 N6        29.98R
KENANSVILLE    CLEAR     66  58  77 CALM      29.98S
NEW BERN       CLEAR     64  57  78 N5        29.99R
ELIZABETH CITY CLOUDY    58  55  90 VRB7      30.00R

.........CENTRAL NC.........

CITY           SKY/WX    TMP DP  RH WIND       PRES   REMARKS
RALEIGH DURHAM MOCLDY    71  60  68 SE7       29.96R
ROCKY MOUNT    CLEAR     64  58  80 CALM      29.99R
ROANOKE RAPIDS NOT AVBL
FAYETTEVILLE   CLEAR     73  62  68 E5        29.94R
HOFFMAN        PTCLDY    77  58  52 S2        29.93R

.........WESTERN NC.........

CITY           SKY/WX    TMP DP  RH WIND       PRES   REMARKS
CHARLOTTE      CLOUDY    78  55  44 S5        29.94R
GREENSBORO     CLOUDY    75  53  46 SW5       29.93R
HICKORY        NOT AVBL
BOONE          NOT AVBL
ASHEVILLE      NOT AVBL

.....................REST OF SOUTH CAROLINA.....................

.........EASTERN SC.........

CITY           SKY/WX    TMP DP  RH WIND       PRES   REMARKS
CHARLESTON     MOCLDY    73  67  81 SE10      29.95R
BEAUFORT MCAS  PTCLDY    77  67  71 E7        29.94R
HILTON HEAD    CLEAR     75  68  78 SE5       29.95R

.........CENTRAL SC.........

CITY           SKY/WX    TMP DP  RH WIND       PRES   REMARKS
COLUMBIA       PTCLDY    85  52  32 N3        29.92R
ORANGEBURG     CLEAR     81  60  48 CALM      29.92R
SUMTER SHAW    PTCLDY    81  64  57 SE3       29.91R

.........WESTERN SC.........

CITY           SKY/WX    TMP DP  RH WIND       PRES   REMARKS
GREENVILLE     NOT AVBL
ROCK HILL      MOCLDY    74  60  61 SW3       29.95R
ANDERSON       CLOUDY    77  57  50 CALM      29.95R
CLEMSON        NOT AVBL
GREENWOOD      CLOUDY    75  56  51 CALM      29.96R


...................COASTAL AND OFFSHORE REPORTS..................

................LOCAL PIERS AND NC RESERVE................


STATION/POSITION TIME  SKY/WX   TEMP    WIND        PRES    VSBY
                                AIR SEA DIR/SP/G
                 (UTC)          (F)     (DEG/KT/KT) (MB)    (MI)
JOHNY MRCER PIER 2300            68 70              1013.3S
NC RESRV MASNBRO NOT AVBL
OCEAN CREST PIER NOT AVBL
SPRINGMAID  PIER 2300            69 72              1014.2R


................COASTAL AND OFFSHORE BUOYS................


STATION/POSITION TIME  SKY/WX   TEMP    WIND        PRES    VSBY
                                AIR SEA DIR/SP/G
                 (UTC)          (F)     (DEG/KT/KT) (MB)    (MI)
DIMNDSHOAL 41025 2350            61 74   20/ 19/ 23 1014.8R
WVE H/P(F/S)=  4/ 5 SWL H/P/D(F/S/D)=  2/ 50/ 9

CAPE LOOKOUT     0000            67     350/ 12/ 13 1014.9R
ONSLOW BAY 41036 NOT AVBL
ONSLOW BAY 41064 NOT AVBL
ONSLOW BAY 41159 2325               68                N/A
WVE H/P(F/S)=  2/ 6

5SE WRITBC 41038 2308            69 68  120/  8/ 12 1014.7S
MASNBO INL 41110 2306               68                N/A
WVE H/P(F/S)=  2/ 4

WILM HARBR 41108 2326               69                N/A
WVE H/P(F/S)=  2/ 4

27SE WRITB 41037 2308            69 69   50/  4/  8 1014.6R
FRYING PAN 41013 0000            69 70   70/  8/ 10 1014.5R
SUNST NRSH 41024 2308            69 68  140/ 10/ 12 1013.9R
CAPRS NRSH 41029 2308            71 71  130/  8/ 12 1014.1R
EDISTO     41004 2350            73 72  100/  8/ 10 1014.0R
WVE H/P(F/S)=  2/10 SWL H/P/D(F/S/D)=  2/10



..........OFFSHORE BUOYS BEYOND 100 NM OFFSHORE...........
.....IN A TRIANGLE---HAT TO BERMUDA TO BAHAMAS TO HAT.....


STATION/POSITION TIME  SKY/WX   TEMP    WIND        PRES    VSBY
                                AIR SEA DIR/SP/G
                 (UTC)          (F)     (DEG/KT/KT) (MB)    (MI)
150E HAT   41001 NOT AVBL
W BERMUDA  41048 2350            71 70  190/ 10/ 12 1014.8R
WVE H/P(F/S)=  3/ 8 SWL H/P/D(F/S/D)=  2/100/ 8

ATLANTIC S 41049 2350            74 76   50/ 12/ 14 1016.7R
WVE H/P(F/S)=  4/ 9 SWL H/P/D(F/S/D)=  3/ 90/ 9

E BAHAMAS  41046 2350            78 80  110/ 10/ 12 1014.5R
WVE H/P(F/S)=  3/ 8 SWL H/P/D(F/S/D)=  3/ 70/ 8

NE BAHAMAS 41047 2350            75 77   80/  8/ 10 1015.1R
WVE H/P(F/S)=  3/ 9 SWL H/P/D(F/S/D)=  3/ 90/ 9

120E CANVRL41010 2320            77 77  220/  4/  6 1014.5F

END




USA.gov is the U.S. government's official web portal to all federal, state and local government web resources and services.